Regional Weather Roundup
Issued by NWS

Home | Current Version | Previous Version | Graphics & Text | Print | Product List | Glossary On
Versions: 1 2 3 4 5 6 7 8 9 10 11 12 13 14 15 16 17 18 19 20 21 22 23 24 25 26 27 28 29 30 31 32 33 34 35 36 37 38 39 40 41 42 43 44 45 46 47 48 49 50
000
ASUS43 KFSD 062210
RWRSD

WEATHER ROUNDUP FOR SOUTH DAKOTA
NATIONAL WEATHER SERVICE SIOUX FALLS SD
500 PM CDT MON JUL 06 2015

NOTE: "FAIR" INDICATES FEW OR NO CLOUDS BELOW 12,000 FEET WITH NO
SIGNIFICANT WEATHER AND/OR OBSTRUCTIONS TO VISIBILITY.


SDZ001>005-009-010-012>017-062300-
NORTHWEST AND NORTH CENTRAL SOUTH DAKOTA

CITY           SKY/WX    TMP DP  RH WIND       PRES   REMARKS
BUFFALO          N/A     73  47  39 NW10      30.14F
FAITH            N/A     71  51  49 N9        30.18S
MOBRIDGE       MOSUNNY   74  52  46 N9        30.12S
$$

SDZ012>016-024>037-041>051-057-063-072>074-062300-
SOUTHWEST AND SOUTH CENTRAL SOUTH DAKOTA

CITY           SKY/WX    TMP DP  RH WIND       PRES   REMARKS
RAPID CTY ARPT MOSUNNY   70  54  56 N12       30.21F
PIERRE         MOSUNNY   74  54  49 N12       30.12S
CUSTER         CLOUDY    59  50  72 S8        30.29F HAZE
ELLSWORTH AFB  MOSUNNY   71  54  55 N13       30.20F
PHILIP         MOSUNNY   76  54  46 NW12      30.16F
PINE RIDGE     MOSUNNY   69  52  54 N7        30.22F
SPEARFISH      FAIR      66  55  68 N8        30.25F
WINNER         FAIR      77  52  41 N20       30.13R
$$

SDZ004>011-016>023-039-040-062300-
NORTHEAST SOUTH DAKOTA

CITY           SKY/WX    TMP DP  RH WIND       PRES   REMARKS
ABERDEEN       PTSUNNY   73  53  49 N12       30.10S HAZE
WATERTOWN      MOSUNNY   70  53  54 N18G26    30.09R
BROOKINGS      PTSUNNY   70  55  60 N20       30.08R
SISSETON         N/A     69  49  48 N20G25    30.08S
$$

SDZ017-020-022-023-036>040-048>070-062300-
SOUTHEAST SOUTH DAKOTA

CITY           SKY/WX    TMP DP  RH WIND       PRES   REMARKS
SIOUX FALLS    CLOUDY    73  58  59 N14G25    30.03S SMOKE
HURON          SUNNY     73  55  53 N16G24    30.09R HAZE
CHAMBERLAIN    PTSUNNY   73  58  60 NE10      30.12R
MITCHELL       SUNNY     74  57  55 N16G25    30.08R HAZE
YANKTON        MOSUNNY   75  59  57 N18       30.01F
$$

ABBREVIATIONS USED IN REMARKS
   TC - TEMPERATURE IN CELSIUS
  WCI - WIND CHILL INDEX
   HX - HEAT INDEX
  VSB - VISIBILITY




USA.gov is the U.S. government's official web portal to all federal, state and local government web resources and services.